STARLINK-35940

Last updated on Wed Dec 31 2025 00:02:06 GMT+0000 (Coordinated Universal Time)

1 66617U 25271A 25364.56163552 .00090680 00000+0 22496-2 0 9993 2 66617 53.1592 103.1096 0001235 56.8239 303.2884 15.39626661 6950
UTC large
Height (km)
Speed (km/s)
/
Latitude / Longitude
Inclination (degrees)
Orbital Period (minutes)
Azimuth
Elevation
Range (km)
Doppler Factor

Next 0 passes for location: London (51.5072 / 0.1276)

Sorry there are no passes over London.